Simultaneous Nadir Overpasses (SNOs) Predictions

Prediction of SNOs between GOES-17 and NOAA-19 Satellite Orbit:

Table of predicted SNOs for the next 14.0 days since TLE Epoch: 6/11/2022
Index Date Time (GOES-17) GOES-17 Lat,Lon NOAA-19 Lat,Lon Distance(km) Time Diff (sec)
1 06/11/2022 17:12:13 0.07,-137.20 1.06,-141.51 492.23 80
2 06/12/2022 17:00:22 0.06,-137.20 0.39,-138.62 162.51 80
3 06/13/2022 16:51:12 0.06,-137.20 -0.29,-135.74 166.93 80
4 06/14/2022 16:39:21 0.06,-137.19 -0.96,-132.85 496.09 80
5 06/16/2022 05:11:51 -0.05,-137.17 -0.84,-140.63 394.30 80
6 06/17/2022 05:00:00 -0.05,-137.17 -0.18,-137.74 65.64 80
7 06/18/2022 04:45:30 -0.04,-137.16 0.49,-134.85 263.03 80
8 06/20/2022 17:06:01 0.04,-137.14 0.62,-139.72 293.89 80
9 06/21/2022 16:56:50 0.04,-137.13 -0.01,-136.82 35.08 80
10 06/22/2022 16:44:59 0.04,-137.12 -0.69,-133.94 363.70 80
